Terminal Aerodrome Forecast
Issued by NWS

Home | Current Version | Previous Version | Text Only | Print | Product List | Glossary On
Versions: 1 2 3 4 5 6 7 8 9 10 11 12
000
FTUS42 TJSJ 170541
TAFJPS
TAF
TJPS 170541Z 1706/1806 06005KT P6SM -SHRA FEW025 SCT060
     FM171450 13012KT P6SM VCSH SCT030 SCT060
     FM172330 07006KT P6SM FEW030=

USA.gov is the U.S. government's official web portal to all federal, state and local government web resources and services.